This demonstration page uses our WeatherBlox Daily Observations layout. Learn more.

Left ArrowRight Arrow

39.92423, -83.80882

Hourly Observations for March 30, 2018

Temp ( °F °C ) Dew Point ( °F °C ) Humidity (%) Winds ( mph kmh ) Pressure ( in mb ) Visibility ( mi km ) Precip ( " mm )
12:56 am 00:56 Cloudy with Light Rain 41 5 39 3.9 93 93 N 16 26 29.86 1011 10 16 0.04 1.02
1:56 am 01:56 Cloudy with Rain 40 4.4 39 3.9 97 97 N 14 22 29.91 1013 10 16 0.05 1.27
2:56 am 02:56 Cloudy with Light Rain 40 4.4 38 3.3 93 93 N 13 20 29.93 1013 10 16 0.08 2.03
3:56 am 03:56 Cloudy with Light Rain 40 4.4 38 3.3 93 93 N 12 19 29.91 1013 10 16 0.02 0.51
4:56 am 04:56 Cloudy 40 4.4 38 3.3 93 93 N 12 19 29.95 1014 10 16 N/A
5:56 am 05:56 Cloudy with Light Rain 40 4.4 38 3.3 93 93 N 10 17 29.95 1014 10 16 N/A
6:56 am 06:56 Cloudy with Light Rain 40 4.4 39 3.9 97 97 N 8 13 30.01 1016 9 14 N/A
7:56 am 07:56 Cloudy with Light Rain 40 4.4 38 3.3 93 93 N 10 17 30.04 1017 6 10 0.01 0.25
8:19 am 08:19 Cloudy with Light Rain 39 4 37 3 93 93 N 10 17 30.06 1018 8 13 0.01 0.25
8:56 am 08:56 Cloudy with Light Rain 40 4.4 38 3.3 93 93 N 9 15 30.09 1019 7 11 0.02 0.51
9:12 am 09:12 Cloudy with Rain 39 4 37 3 93 93 N 9 15 30.09 1019 6 10 0.02 0.51
9:56 am 09:56 Cloudy 40 4.4 38 3.3 93 93 NNE 7 11 30.11 1020 9 14 0.03 0.76
10:56 am 10:56 Cloudy 41 5 38 3.3 89 89 N 12 19 30.15 1021 8 13 N/A
11:22 am 11:22 Cloudy 41 5 37 3 87 87 NNE 7 11 30.15 1021 9 14 N/A
11:29 am 11:29 Cloudy 39 4 37 3 93 93 NNE 6 9 30.21 1023 10 16 N/A
11:37 am 11:37 Cloudy 39 4 37 3 93 93 N 7 11 30.21 1023 10 16 N/A
11:56 am 11:56 Cloudy 41 5 37 2.8 86 86 N 7 11 30.17 1022 10 16 N/A
12:10 pm 12:10 Cloudy 43 6 37 3 81 81 NNW 7 11 30.18 1022 10 16 N/A
1:42 pm 13:42 Mostly Sunny 45 7 34 1 66 66 N N/A 30.18 1022 10 16 N/A
1:56 pm 13:56 Sunny 45 7.2 34 1.1 66 66 N 6 9 30.17 1022 10 16 N/A
2:56 pm 14:56 Mostly Cloudy 47 8.3 33 0.6 59 59 NW 12 19 30.18 1022 10 16 N/A
3:56 pm 15:56 Sunny 46 7.8 29 -1.7 51 51 WNW 9 15 30.19 1022 10 16 N/A
4:56 pm 16:56 Sunny 47 8.3 23 -5 39 39 VRB 5 7 30.19 1022 10 16 N/A
5:56 pm 17:56 Sunny 47 8.3 21 -6.1 36 36 NNW 7 11 30.19 1022 10 16 N/A
6:56 pm 18:56 Sunny 47 8.3 24 -4.4 41 41 WNW 10 17 30.21 1023 10 16 N/A
7:56 pm 19:56 Sunny 43 6.1 28 -2.2 56 56 NW 6 9 30.22 1024 10 16 N/A
8:56 pm 20:56 Clear 42 5.6 29 -1.7 60 60 N N/A 30.24 1024 10 16 N/A
9:56 pm 21:56 Clear 40 4.4 30 -1.1 68 68 N N/A 30.26 1025 10 16 N/A
10:56 pm 22:56 Clear 37 2.8 31 -0.6 79 79 N N/A 30.27 1025 10 16 N/A
11:56 pm 23:56 Clear 35 1.7 30 -1.1 82 82 S 3 6 30.28 1025 10 16 N/A

Powered by AerisWeather